Location: Les Martinières
(47.2667°N, 1.4410°E)
Time: 03:09:16
(UTC+00:00)

Cosmos 1833 - Pass Details

Date: 15 May 2026
Orbit: 833 x 865 km, 70.9° (Epoch: 8 June)

Event Time Altitude Azimuth Distance (km) Brightness Sun altitude
Exits shadow 21:44:10 20° 191° (S) 1,848 5.6 -17.9°
Maximum altitude 21:48:06 68° 113° (ESE) 905 4.1 -18.2°
Drops below altitude 10° 21:53:41 10° 32° (NNE) 2,457 7.0 -18.7°
Sets 21:56:08 0° 30° (NNE) 3,393 7.8 -18.9°
